Location: St. Louis
(38.6270°N, 90.1994°W)
Time: 09:12:00
(UTC-06:00)

Vanguard 2 Rocket - Pass Details

Date: 07 December 2021
Orbit: 553 x 3325 km, 32.9° (Epoch: 23 January)

Event Time Altitude Azimuth Distance (km) Brightness Sun altitude
Rises 21:35:05 0° 272° (W) 4,073 10.7 -56.7°
Reaches altitude 10° 21:37:35 10° 265° (W) 3,397 10.1 -57.2°
Enters shadow 21:38:11 13° 263° (W) 3,255 10.0 -57.3°
Maximum altitude 21:45:53 41° 199° (SSW) 2,590 - -58.7°
Drops below altitude 10° 21:59:34 10° 137° (SE) 5,534 - -61.1°
Sets 22:05:01 0° 131° (SE) 6,887 - -62.1°
